Flag for Canada Weather past 2 weeks in Fort Nelson, British Columbia, Canada

Now
28 °F

Partly cloudy.


Feels Like: 28 °F
Forecast: 19 / 35 °F
Wind: No wind

Location: Fort Nelson

Current Time: Mar 6, 2015 at 5:46:32 AM

Latest Report: Mar 6, 2015 at 5:00 AM


Visibility: 15 mi

Pressure: 30.01 "Hg

Humidity: 80%

Dew point: 23 °F

Location of Fort NelsonLocation

Historic Weather in Fort Nelson — Graph

°F

Fort Nelson temperature yesterday

Maximum temperature yesterday: 48 °F (at 3:00 PM)
Minimum temperature yesterday: 19 °F (at 7:00 AM)
Average temperature yesterday: 31 °F

Past Weeks' High & Low Weather Summary

 TemperatureHumidityPressure
High52 °F (Feb 22, 7:00 PM)100% (Feb 19, 9:00 PM)30.74 "Hg (Feb 19, 9:00 PM)
Low-11 °F (Mar 3, 6:00 AM)32% (Mar 2, 2:00 PM)29.80 "Hg (Mar 5, 6:00 PM)
Average22 °F77%30.26 "Hg
* Reported Feb 19 5:00 AM — Mar 6 5:00 AM, Fort Nelson, Weather by CustomWeather, © 2015

Note: Actual official high and low records may vary slightly from our data, if they occured in-between our weather recording intervals... More about our weather records

Advertising

Fort Nelson weather history for previous 24 hours

 ConditionsComfort  
Time TempWeatherWind HumidityBarometerVisibility
5:00 AM
Fri, Mar 6
28 °FPartly cloudy.No wind80%30.01 "Hg15 mi
4:00 AM30 °FPassing clouds.2 mph75%29.98 "Hg15 mi
3:00 AM30 °FPassing clouds.2 mph75%29.95 "Hg15 mi
2:00 AM32 °FPassing clouds.3 mph69%29.92 "Hg15 mi
1:00 AM30 °FPassing clouds.2 mph75%29.88 "Hg15 mi
12:00 AM30 °FPassing clouds.No wind75%29.86 "Hg15 mi
11:00 PM
Thu, Mar 5
28 °FPassing clouds.5 mph80%29.85 "Hg15 mi
10:00 PM28 °FPassing clouds.2 mph74%29.82 "Hg15 mi
9:00 PM30 °FPassing clouds.No wind69%29.81 "Hg15 mi
8:00 PM28 °FPartly cloudy.7 mph74%29.81 "Hg15 mi
7:00 PM30 °FPartly cloudy.2 mph75%29.82 "Hg15 mi
6:00 PM39 °FChilly.2 mph48%29.80 "Hg15 mi
5:00 PM45 °FPartly sunny.2 mph39%29.80 "Hg15 mi
4:00 PM46 °FScattered clouds.3 mph37%29.82 "Hg15 mi
3:00 PM48 °FScattered clouds.6 mph34%29.83 "Hg30 mi
2:00 PM45 °FPartly sunny.6 mph39%29.85 "Hg30 mi
1:00 PM43 °FPartly sunny.6 mph42%29.87 "Hg30 mi
12:00 PM37 °FPartly sunny.5 mph52%29.89 "Hg30 mi
11:00 AM32 °FPartly sunny.6 mph60%29.89 "Hg30 mi
10:00 AM28 °FPartly sunny.7 mph64%29.90 "Hg30 mi
9:00 AM25 °FPartly sunny.6 mph74%29.92 "Hg30 mi
8:00 AM21 °FBroken clouds.5 mph80%29.92 "Hg30 mi
7:00 AM19 °FPartly sunny.5 mph79%29.91 "Hg15 mi
6:00 AM21 °FPassing clouds.5 mph80%29.91 "Hg15 mi
5:00 AM23 °FPassing clouds.6 mph80%29.91 "Hg15 mi
Weather by CustomWeather, © 2015

See weather overviewHow to use our weather pages